Wind_Speed
16 18 21 22 24 27 29 31 34 38 41 42 45 47 47 46 45 45 44 44 43 44 44 44 45 45 45 45 45 45 44 44 45 44 44 43 43 42 41 43 44 44 44 44
15 18 17 17 18 20 21 23 26 29 32 34 38 41 43 43 43 43 43 42 42 42 41 41 42 43 44 45 46 46 46 46 46 47 46 45 46 45 44 43 44 45 46 47
18 19 17 18 19 20 22 24 25 26 27 29 32 33 37 37 39 39 39 40 40 39 39 38 39 40 41 42 44 44 45 46 47 48 48 48 49 47 45 44 45 46 46 47
19 19 20 21 23 23 26 26 27 27 27 29 31 31 34 36 36 37 37 38 38 38 38 38 39 39 40 41 43 44 45 46 47 47 48 49 49 48 46 46 47 45 45 46
19 19 20 22 23 23 26 26 27 27 28 29 30 32 31 36 35 36 37 38 38 39 39 39 40 41 41 42 44 45 46 48 49 49 50 52 51 50 49 49 49 48 48 47
15 16 17 19 20 21 22 23 23 24 24 25 26 28 29 31 31 33 34 35 36 37 37 38 39 40 41 42 43 45 47 49 50 51 52 53 53 52 51 50 50 49 47 47
10 11 13 14 15 16 17 18 18 18 17 18 22 23 24 25 25 27 28 30 30 31 32 34 35 37 39 41 43 45 47 49 51 52 53 54 54 54 54 53 51 49 47 45
8 10 12 12 13 14 15 16 17 19 18 18 20 20 21 22 23 24 24 25 26 27 27 29 30 32 34 37 39 42 45 47 50 52 53 54 55 55 55 54 52 50 48 45
8 10 12 11 12 13 14 15 18 20 19 19 19 20 21 22 24 24 25 25 25 25 26 27 28 30 33 35 37 39 42 45 47 50 51 52 53 53 53 53 51 50 49 47
9 11 12 12 13 14 15 17 19 21 23 23 22 22 23 25 26 26 27 27 26 26 27 28 29 31 32 34 35 37 40 42 45 48 49 49 49 49 49 49 47 47 48 47
11 12 14 16 16 17 19 20 22 24 26 27 28 26 25 27 30 30 29 29 29 29 29 30 30 31 32 33 34 36 38 40 42 44 44 43 43 44 44 44 43 43 44 44
14 15 16 18 19 20 22 23 25 27 28 30 32 31 29 30 33 33 32 32 31 31 31 31 31 32 32 32 34 35 36 37 38 37 37 37 38 38 39 39 40 40 41 40
15 15 16 17 20 21 22 23 26 28 30 31 33 33 33 33 35 35 35 34 33 32 32 31 31 31 31 31 32 34 34 33 32 32 32 32 31 31 33 35 36 36 36 35
13 14 15 16 18 23 25 24 26 28 31 33 33 33 32 35 37 37 36 35 34 33 32 31 30 30 30 29 30 30 30 30 28 26 25 26 27 27 27 29 30 30 30 30
12 13 14 16 18 21 22 23 26 28 29 31 31 32 32 34 35 35 35 35 33 32 31 30 29 29 28 27 27 28 27 26 24 22 22 21 22 24 23 23 22 23 25 26
13 14 15 15 18 20 21 21 24 26 28 29 30 31 31 34 34 34 33 33 31 31 31 30 28 27 27 26 25 25 25 23 22 20 20 19 19 19 19 19 18 17 19 21
15 17 17 17 19 21 20 22 24 26 27 29 30 30 31 33 33 33 32 31 29 29 29 28 27 26 25 24 24 23 23 22 21 20 18 17 16 16 15 14 14 14 14 15
18 20 20 20 21 21 21 24 25 26 26 29 30 30 32 33 32 31 31 30 29 28 28 27 26 25 23 22 21 21 21 20 19 18 17 15 15 14 13 13 12 13 13 14
21 22 23 23 24 22 22 26 27 28 27 29 31 32 33 33 32 32 31 30 29 28 28 27 25 24 22 21 20 19 18 17 17 16 14 14 13 12 12 12 12 12 12 13
25 25 26 27 27 27 28 29 29 30 30 31 32 33 34 34 33 32 33 31 30 29 27 26 25 24 22 20 18 17 16 15 14 14 13 12 12 11 11 12 12 12 12 11
28 29 29 29 29 30 31 31 31 32 34 35 35 35 36 35 34 34 33 32 31 29 28 27 25 24 21 19 18 16 15 14 13 12 11 11 10 11 11 11 11 11 11 11
30 32 33 32 30 32 33 33 34 36 36 36 37 37 37 37 36 35 34 32 32 30 29 27 26 24 22 20 18 16 14 13 12 11 10 10 10 9 9 10 10 11 11 11
32 34 34 34 33 33 34 35 37 40 40 39 38 38 38 38 36 35 34 33 32 30 28 27 25 24 23 22 20 17 15 13 12 11 10 10 9 9 9 8 9 9 10 10
35 35 35 36 36 36 37 38 40 41 41 41 41 40 39 38 37 35 34 33 31 30 29 27 26 25 24 23 22 19 17 15 13 12 11 11 10 10 9 9 9 9 10 10
36 38 39 40 41 41 41 42 43 43 43 43 42 41 40 39 37 36 35 33 32 31 29 27 26 26 25 25 24 21 19 17 16 14 13 12 11 11 11 11 11 11 11 12
38 40 42 44 45 46 47 47 47 47 46 45 43 42 41 40 38 36 35 34 33 31 30 28 27 27 27 26 26 25 22 21 19 17 16 15 14 13 13 13 13 13 13 13
Wind_Direction
238 241 244 247 248 250 251 252 253 254 256 257 259 262 264 265 266 267 268 268 268 268 269 269 270 270 271 271 271 270 270 270 269 270 268 266 266 267 269 270 270 272 271 272
244 246 249 252 254 255 255 256 257 259 259 259 261 263 265 267 268 269 269 269 269 269 268 267 267 268 268 269 269 269 270 270 270 270 269 268 268 267 270 272 271 272 271 270
249 253 255 257 259 261 261 260 260 261 263 264 264 266 266 266 268 269 269 269 269 269 268 267 266 266 266 267 268 268 270 270 271 271 271 272 273 272 272 274 274 274 273 274
254 257 259 261 262 262 264 263 264 265 264 265 267 267 269 269 268 269 269 269 268 268 268 267 266 266 265 266 267 268 270 271 272 272 274 275 276 276 278 279 279 279 278 278
258 260 261 262 264 264 265 268 268 268 268 268 269 270 269 272 271 270 270 269 269 269 269 269 269 268 268 268 268 269 271 272 273 275 276 277 278 278 278 279 279 280 280 280
259 262 263 265 267 268 270 272 273 274 274 275 272 272 272 273 273 272 271 271 270 270 270 270 270 271 271 271 271 272 273 273 274 275 276 277 277 278 278 279 278 278 279 279
262 266 268 270 274 276 277 278 281 283 282 280 278 276 276 275 274 273 273 273 273 273 273 273 273 273 274 274 275 275 274 274 275 275 275 275 275 276 277 277 276 277 277 277
272 278 275 274 273 274 277 279 280 280 279 278 281 282 279 277 275 274 275 276 277 277 277 277 278 278 278 278 277 276 276 275 275 274 274 274 273 274 274 274 274 273 274 273
274 279 283 281 279 280 281 280 281 284 286 285 283 282 281 278 278 278 279 279 280 280 280 281 282 284 284 283 282 281 280 279 277 276 275 274 273 271 271 270 270 270 271 270
279 282 285 286 285 285 284 285 285 286 289 288 286 284 282 282 281 280 280 281 281 282 284 286 288 289 289 289 289 287 286 285 282 279 277 275 272 269 268 266 266 266 266 264
289 289 289 289 289 288 288 287 287 287 288 289 289 286 285 286 284 283 282 282 282 284 286 289 291 294 295 295 295 295 294 293 289 284 278 274 271 267 265 262 261 261 259 259
291 291 289 289 289 287 287 288 289 289 290 289 289 290 289 288 286 283 283 283 284 285 287 290 293 296 298 299 300 300 300 299 295 288 281 273 269 266 262 258 257 258 256 254
297 297 296 296 297 293 290 291 290 290 290 291 291 294 293 289 286 286 285 284 284 285 287 290 294 297 300 302 303 304 305 303 300 296 286 276 268 263 260 257 256 257 253 251
307 306 303 299 292 293 299 301 296 292 291 293 294 295 293 291 288 287 286 285 284 285 286 289 293 297 301 304 306 308 309 307 304 300 293 280 271 266 263 260 258 252 248 246
319 317 310 308 303 300 303 304 299 297 298 297 299 297 296 291 290 289 288 286 284 284 285 287 292 296 300 304 306 310 311 310 308 300 296 290 275 272 270 263 258 253 250 250
325 323 320 318 309 309 311 305 300 301 302 303 304 303 300 296 295 293 291 289 285 283 284 286 290 294 298 302 305 309 312 311 309 302 295 291 284 280 274 267 263 259 253 249
324 323 325 323 317 319 317 309 308 309 308 307 307 307 305 301 300 298 294 291 288 285 285 285 288 292 295 299 302 306 309 311 310 308 302 292 284 278 274 272 270 267 265 260
319 318 320 321 319 322 317 312 311 312 312 309 309 310 309 307 305 302 298 295 290 287 286 285 285 289 292 295 299 302 305 307 308 307 304 297 289 284 280 274 272 273 270 266
315 316 317 319 319 322 316 311 312 313 314 309 309 311 310 309 307 303 300 297 292 288 286 285 283 285 287 290 295 299 301 303 305 303 299 291 286 281 273 271 272 268 265 261
313 314 315 318 319 320 316 314 314 312 311 309 310 309 308 308 307 303 300 297 292 288 286 283 280 280 282 285 289 295 297 298 300 298 294 288 280 275 270 268 268 266 264 261
312 312 313 315 317 316 313 313 312 311 309 308 308 307 306 306 305 303 301 298 294 288 285 281 277 275 275 279 283 288 291 292 293 294 289 285 279 273 267 264 263 261 258 253
309 309 312 314 315 312 311 311 308 305 304 305 305 304 304 303 303 302 301 299 295 290 284 280 274 270 268 271 275 280 282 284 286 286 285 280 275 272 266 262 257 252 249 248
307 308 310 311 310 307 307 305 303 303 304 305 303 302 301 300 300 299 299 299 297 292 286 278 271 265 263 265 268 271 273 275 277 278 276 274 269 265 262 256 250 246 242 242
307 308 307 307 306 304 303 301 301 302 303 302 300 299 298 297 297 296 295 295 294 292 287 280 270 262 259 260 262 264 263 264 267 268 267 266 263 260 255 251 247 243 240 239
307 307 307 306 305 304 303 302 302 302 301 299 298 297 296 295 294 293 292 291 290 289 286 282 273 261 256 255 256 258 258 258 259 260 260 259 257 254 252 250 248 245 243 243
308 307 306 305 305 304 304 303 303 301 300 298 296 295 294 293 292 290 289 287 285 284 283 280 276 265 256 253 253 253 254 255 255 254 253 254 254 252 251 250 249 248 247 246
Height
5878 5880 5880 5882 5884 5885 5887 5888 5888 5888 5888 5890 5889 5888 5888 5888 5889 5889 5889 5890 5890 5890 5890 5889 5888 5887 5887 5886 5885 5885 5884 5884 5882 5881 5880 5878 5877 5876 5875 5874 5872 5870 5869 5868
5876 5877 5878 5879 5880 5881 5882 5883 5882 5882 5882 5883 5882 5882 5881 5880 5880 5880 5880 5880 5880 5880 5880 5879 5879 5878 5878 5877 5876 5876 5875 5874 5874 5872 5870 5869 5868 5867 5866 5864 5862 5860 5858 5857
5873 5874 5875 5876 5877 5877 5877 5877 5877 5877 5877 5876 5876 5876 5873 5873 5872 5871 5871 5871 5871 5870 5870 5870 5869 5869 5868 5868 5867 5866 5866 5865 5864 5862 5861 5860 5859 5857 5855 5853 5852 5851 5849 5847
5869 5870 5871 5872 5872 5872 5872 5871 5872 5871 5872 5871 5870 5869 5868 5865 5864 5864 5863 5863 5862 5861 5861 5861 5860 5860 5859 5859 5858 5857 5856 5855 5853 5852 5851 5849 5847 5846 5844 5842 5841 5840 5838 5837
5864 5866 5866 5867 5866 5867 5865 5865 5865 5865 5864 5864 5863 5862 5862 5857 5857 5856 5855 5854 5853 5853 5852 5851 5851 5850 5850 5849 5848 5847 5846 5844 5843 5841 5839 5838 5836 5836 5834 5833 5831 5830 5828 5826
5861 5861 5861 5861 5861 5860 5860 5860 5859 5858 5858 5858 5856 5855 5854 5851 5849 5848 5846 5845 5844 5844 5843 5842 5841 5840 5840 5839 5838 5836 5835 5833 5831 5829 5827 5825 5824 5822 5821 5821 5819 5818 5816 5816
5858 5857 5857 5856 5856 5856 5855 5855 5855 5854 5854 5853 5849 5848 5848 5844 5842 5840 5839 5837 5836 5835 5833 5832 5831 5830 5829 5828 5826 5824 5822 5820 5817 5816 5814 5812 5810 5809 5808 5808 5807 5806 5805 5804
5856 5856 5854 5853 5853 5852 5851 5851 5850 5849 5848 5847 5844 5842 5842 5838 5835 5833 5832 5830 5828 5827 5825 5824 5822 5820 5818 5816 5814 5812 5809 5806 5804 5801 5799 5798 5796 5795 5794 5794 5794 5793 5793 5793
5853 5853 5851 5850 5849 5849 5847 5846 5845 5843 5842 5841 5839 5838 5835 5832 5829 5827 5825 5824 5822 5820 5818 5816 5813 5811 5808 5806 5802 5799 5796 5793 5789 5786 5784 5782 5781 5780 5779 5779 5779 5780 5780 5781
5850 5850 5849 5847 5846 5845 5844 5842 5841 5839 5836 5835 5834 5833 5830 5826 5823 5821 5819 5817 5815 5813 5810 5807 5805 5802 5798 5795 5791 5787 5783 5779 5775 5771 5768 5766 5765 5764 5764 5765 5765 5766 5767 5769
5847 5847 5846 5844 5843 5842 5840 5839 5836 5834 5831 5829 5827 5828 5824 5820 5817 5814 5812 5809 5807 5805 5802 5799 5796 5792 5788 5784 5779 5774 5769 5764 5760 5756 5753 5751 5750 5749 5750 5751 5752 5753 5754 5756
5844 5844 5843 5841 5839 5837 5835 5833 5831 5829 5825 5822 5819 5821 5816 5813 5808 5806 5804 5801 5799 5796 5793 5790 5787 5783 5778 5773 5768 5763 5757 5752 5747 5742 5739 5737 5737 5736 5737 5738 5739 5741 5743 5745
5841 5840 5838 5837 5836 5832 5829 5827 5825 5822 5818 5815 5812 5813 5807 5804 5800 5797 5795 5793 5790 5788 5785 5781 5778 5773 5769 5764 5758 5753 5747 5742 5737 5733 5729 5727 5726 5725 5726 5727 5729 5731 5733 5735
5836 5835 5834 5833 5830 5826 5823 5821 5818 5815 5811 5808 5805 5803 5800 5795 5790 5788 5785 5783 5781 5779 5776 5773 5769 5765 5760 5755 5750 5745 5739 5734 5729 5725 5722 5721 5719 5718 5718 5719 5720 5722 5724 5727
5833 5831 5828 5826 5823 5820 5818 5815 5811 5807 5804 5800 5797 5794 5791 5786 5782 5778 5776 5773 5772 5769 5767 5764 5760 5756 5752 5748 5743 5738 5733 5728 5724 5720 5718 5715 5714 5713 5713 5714 5714 5716 5718 5719
5829 5827 5825 5822 5818 5815 5812 5809 5804 5800 5797 5793 5789 5786 5782 5776 5773 5769 5766 5764 5762 5760 5758 5755 5752 5748 5745 5741 5737 5732 5728 5724 5720 5717 5714 5712 5710 5709 5709 5709 5709 5710 5712 5713
5826 5823 5820 5818 5813 5810 5807 5803 5798 5795 5791 5786 5782 5779 5773 5769 5764 5761 5758 5755 5753 5751 5749 5746 5744 5740 5737 5734 5730 5727 5723 5719 5716 5712 5710 5708 5706 5705 5705 5705 5706 5707 5707 5709
5821 5818 5815 5812 5810 5806 5804 5797 5793 5789 5786 5780 5775 5770 5766 5761 5756 5753 5749 5747 5745 5743 5741 5738 5735 5733 5730 5727 5724 5721 5718 5714 5711 5709 5706 5704 5703 5702 5702 5702 5702 5703 5704 5705
5816 5813 5810 5807 5803 5801 5797 5791 5787 5783 5780 5773 5768 5763 5758 5753 5749 5745 5741 5739 5736 5734 5732 5730 5728 5725 5723 5721 5718 5716 5713 5710 5708 5705 5703 5701 5700 5699 5699 5699 5699 5700 5701 5701
5811 5807 5804 5800 5797 5794 5791 5784 5780 5776 5772 5766 5761 5756 5751 5746 5742 5739 5733 5731 5728 5725 5724 5722 5720 5718 5716 5715 5713 5710 5708 5706 5704 5702 5700 5698 5697 5696 5696 5696 5696 5696 5697 5698
5805 5801 5798 5794 5790 5787 5783 5777 5773 5769 5765 5758 5753 5748 5743 5739 5735 5731 5726 5722 5719 5717 5715 5713 5712 5711 5710 5708 5707 5705 5703 5702 5700 5698 5696 5695 5694 5693 5693 5693 5693 5693 5694 5695
5799 5794 5791 5788 5784 5782 5774 5769 5764 5759 5754 5749 5744 5740 5735 5730 5726 5722 5717 5714 5711 5708 5706 5705 5704 5703 5703 5702 5701 5700 5698 5697 5695 5694 5693 5692 5691 5690 5690 5690 5690 5690 5691 5691
5792 5788 5783 5780 5778 5771 5765 5759 5753 5748 5744 5740 5735 5730 5725 5721 5717 5713 5709 5705 5702 5699 5697 5696 5695 5695 5695 5695 5695 5694 5693 5692 5691 5690 5689 5688 5688 5687 5687 5687 5687 5687 5688 5689
5783 5779 5775 5770 5766 5761 5755 5749 5744 5739 5733 5729 5724 5719 5715 5711 5707 5704 5700 5696 5693 5691 5689 5687 5687 5687 5687 5688 5688 5688 5688 5687 5687 5686 5685 5685 5685 5684 5684 5684 5684 5685 5685 5686
5775 5770 5765 5760 5755 5750 5745 5739 5733 5728 5722 5717 5712 5708 5704 5700 5697 5693 5690 5687 5684 5682 5680 5679 5678 5678 5678 5679 5680 5681 5681 5681 5681 5681 5681 5681 5681 5681 5681 5681 5681 5682 5682 5683
5765 5760 5755 5749 5743 5737 5732 5726 5720 5715 5710 5705 5700 5696 5692 5688 5685 5682 5679 5677 5674 5672 5671 5670 5669 5669 5669 5670 5671 5673 5674 5675 5675 5676 5676 5676 5676 5676 5677 5677 5677 5678 5678 5679